This is the latest recevied weather packets stored in our database for station/object N5JXS. If no packets are shown the sender has not sent any weather packets the latest 10 day(s).
| Time | Temp. | Humidity | Pressure | Rain* | Wind** | Luminosity | Snow |
|---|---|---|---|---|---|---|---|
| 1777924420 | 17.22° C | 24% | 1013.1 hPa | 0 mm | - | 223 W/m² | - |
| 1777924118 | 17.22° C | 24% | 1013 hPa | 0 mm | - | 189 W/m² | - |
| 1777923813 | 17.22° C | 25% | 1013 hPa | 0 mm | - | 193 W/m² | - |
| 1777923509 | 17.22° C | 24% | 1012.9 hPa | 0 mm | - | 200 W/m² | - |
| 1777923207 | 17.22° C | 21% | 1012.9 hPa | 0 mm | - | 226 W/m² | - |
| 1777922906 | 17.22° C | 21% | 1013 hPa | 0 mm | - | 153 W/m² | - |
| 1777922603 | 17.22° C | 21% | 1013.3 hPa | 0 mm | - | 143 W/m² | - |
| 1777922302 | 16.67° C | 21% | 1013 hPa | 0 mm | - | 146 W/m² | - |
| 1777921999 | 16.67° C | 20% | 1013.3 hPa | 0 mm | - | 163 W/m² | - |
| 1777921694 | 17.22° C | 21% | 1013.1 hPa | 0 mm | - | 183 W/m² | - |
| 1777921390 | 17.22° C | 20% | 1012.9 hPa | 0 mm | - | 158 W/m² | - |
| 1777921087 | 17.22° C | 19% | 1013.3 hPa | 0 mm | - | 141 W/m² | - |
| 1777920784 | 18.33° C | 19% | 1013 hPa | 0 mm | - | 160 W/m² | - |
| 1777920480 | 18.89° C | 19% | 1013.3 hPa | 0 mm | - | 237 W/m² | - |
| 1777920176 | 18.89° C | 19% | 1013.3 hPa | 0 mm | - | 234 W/m² | - |
| 1777919872 | 18.89° C | 19% | 1013.3 hPa | 0 mm | - | 309 W/m² | - |
| 1777919569 | 18.89° C | 19% | 1013.5 hPa | 0 mm | - | 371 W/m² | - |
| 1777919267 | 18.33° C | 21% | 1013.8 hPa | 0 mm | - | 876 W/m² | - |
| 1777918964 | 17.78° C | 21% | 1013.8 hPa | 0 mm | - | 272 W/m² | - |
| 1777918662 | 16.67° C | 22% | 1013.9 hPa | 0 mm | - | 777 W/m² | - |
| 1777918359 | 16.67° C | 22% | 1013.9 hPa | 0 mm | - | 155 W/m² | - |
| 1777918058 | 17.22° C | 21% | 1014 hPa | 0 mm | - | 180 W/m² | - |
| 1777917756 | 17.22° C | 22% | 1013.9 hPa | 0 mm | - | 591 W/m² | - |
| 1777917453 | 18.33° C | 21% | 1014.1 hPa | 0 mm | - | 147 W/m² | - |
| 1777917150 | 18.33° C | 21% | 1014 hPa | 0 mm | - | 158 W/m² | - |
* Rain latest hour (hover to see other rain measurements)
** Current wind speed in m/s (hover to see current wind gust speed)